sat.trackr.live / text

‹ back to catalog

STARLINK-33796

NORAD 63515 · 2025-071Y

PAYLOAD ACTIVE UNKNOWN

§ Identity

Operator
Country
US
Launch date
2025-04-07
Launch site
AFWTR
Launch vehicle
Mass (kg)
RCS (m²)

Purposes: comms

External: N2YO · Heavens-Above · Gunter

§ Orbital elements

Epoch: 2026-09-20T11:06:15.860448Z

Period
93.85 min
Inclination
53.1604°
Eccentricity
0.0001182
Mean motion
15.34393976 rev/d
Perigee alt
461.9 km
Apogee alt
463.5 km
Semi-major
6,840.9 km
B*
4.0468e-4
RAAN
313.5454°
Arg perigee
77.3177°
Mean anomaly
282.7958°
Rev number
8,261

§ Raw data

STARLINK-337961 63515U 25071Y   26263.46268357  .00013318  00000+0  40468-3 0  99952 63515  53.1604 313.5454 0001182  77.3177 282.7958 15.34393976 82618

JSON: /api/v1/satellites/63515 · /tle

For live sub-satellite position, see the globe view (requires WebGL).

§ Visibility from observer

Set your observer location to see the next 7 days of passes ≥ 10°. The values pass through the URL so the page stays shareable.

No JS? Fill the form by hand. The geolocation button needs JavaScript.